Regional Weather Roundup
Issued by NWS

Home | Current Version | Previous Version | Text Only | Print | Product List | Glossary On
Versions: 1 2 3 4 5 6 7 8 9 10 11 12 13 14 15 16 17 18 19 20 21 22 23 24 25 26 27 28
000
ASUS44 KLIX 241810
RWRLA
LOUISIANA WEATHER ROUNDUP
NATIONAL WEATHER SERVICE NEW ORLEANS LA
100 PM CDT SUN JUL 24 2016

NOTE: "FAIR" INDICATES FEW OR NO CLOUDS BELOW 12,000 FEET WITH NO
      SIGNIFICANT WEATHER AND/OR OBSTRUCTIONS TO VISIBILITY.
      SKY/WX - SKY CONDITION AND SIGNIFICANT WEATHER.
      TMP - AIR TEMPERATURE.    DP   - DEWPOINT TEMPERATURE.
      RH  - RELATIVE HUMIDITY.  PRES - PRESSURE.
      HX  - HEAT INDEX.         WCI  - WIND CHILL INDEX.

*  THESE STATIONS ARE NOT NWS OR FAA STATIONS AND ARE NOT UNDER
   NWS QUALITY CONTROL.

LAZ040-048-061>063-065-066-069-241900-
SOUTHEAST LOUISIANA

CITY           SKY/WX    TMP DP  RH WIND       PRES   REMARKS
N.O. AUDUBON     N/A     87  77  71 MISG        N/A  HX  99
6HR MIN TEMP:  81; 6HR MAX TEMP:  93;

N.O. INTL ARPT CLOUDY    89  77  67 S6        29.98F HX 101
6HR MIN TEMP:  82; 6HR MAX TEMP:  93;

N.O. LAKEFRONT CLOUDY    85  74  69 E7        30.00F
6HR MIN TEMP:  81; 6HR MAX TEMP:  88; 6HR PCP: TRACE;

N.O. DOWNTOWN* FAIR      86  75  69 VRB6      30.00F HX  95
6HR MIN TEMP:  82; 6HR MAX TEMP:  89; 6HR PCP: TRACE;

RESERVE*       FAIR      90  80  72 SE3       29.97F HX 106
6HR MIN TEMP:  78; 6HR MAX TEMP:  91;

SLIDELL        CLOUDY    82  78  88 S5        29.99F
6HR MIN TEMP:  76; 6HR MAX TEMP:  87; 6HR PCP:  0.09;

BATON ROUGE    CLOUDY    90  76  63 N6        29.98F HX 101
6HR MIN TEMP:  77; 6HR MAX TEMP:  90; 6HR PCP:  0.05;

BOOTHVILLE     RAIN      79  76  90 E3        30.01F FOG
6HR MIN TEMP:  80; 6HR MAX TEMP:  87; 6HR PCP: TRACE;

BELLE CHASSE   CLOUDY    81  76  84 SE14      29.99F
6HR MIN TEMP:  77; 6HR MAX TEMP:  89;

BOGALUSA*      FAIR      93  74  53 E5        30.00F HX 102
6HR MIN TEMP:  76; 6HR MAX TEMP:  93;

GALLIANO*      TSTM      69  69  98 E5        30.00F
6HR MIN TEMP:  69; 6HR MAX TEMP:  89; 6HR PCP:  0.55;

NEW ROADS*     LGT RAIN  81  74  81 N12       29.99F
6HR MIN TEMP:  76; 6HR MAX TEMP:  89;

GONZALES*      FAIR      89  77  67 NW7       29.96F HX 101
6HR MIN TEMP:  75; 6HR MAX TEMP:  89; 6HR PCP:  0.01;

HAMMOND*       CLOUDY    90  72  55 CALM      29.97F HX  96
HOUMA*         LGT RAIN  79  75  89 CALM      30.00S
PORT FOURCHON* PTCLDY    79  73  83 S6        29.99F HAZE

$$

LAZ041-044-053-054-241900-
SOUTHWEST LOUISIANA

CITY           SKY/WX    TMP DP  RH WIND       PRES   REMARKS
LAKE CHARLES   LGT RAIN  92  76  59 N6        29.97F HX 104
6HR MIN TEMP:  79; 6HR MAX TEMP:  93; 6HR PCP: TRACE;

LAFAYETTE      CLOUDY    78  75  90 SW10      30.00F THUNDER
6HR MIN TEMP:  78; 6HR MAX TEMP:  92; 6HR PCP:  0.11;

PATTERSON      MOSUNNY   89  79  72 NW12      29.98F HX 104
6HR MIN TEMP:  78; 6HR MAX TEMP:  91;

SALT POINT       N/A     88  76  67 VRB5      29.97F HX  99
6HR MIN TEMP:  82; 6HR MAX TEMP:  89;

NEW IBERIA     LGT RAIN  78  74  87 W6        30.00F
6HR MIN TEMP:  77; 6HR MAX TEMP:  90;

CHENAULT AIRPK PTSUNNY   88  73  62 VRB7      29.98F HX  96

$$

LAZ027-028-241900-
CENTRAL LOUISIANA

CITY           SKY/WX    TMP DP  RH WIND       PRES   REMARKS
FORT POLK      MOSUNNY   92  74  55 VRB5      29.96F HX 102
6HR MIN TEMP:  79; 6HR MAX TEMP:  93;

ALEXANDRIA INT PTSUNNY   92  75  57 W7        29.95F HX 103
6HR MIN TEMP:  78; 6HR MAX TEMP:  94;

ALEXANDRIA     CLOUDY    81  76  84 E6        30.00R THUNDER
6HR MIN TEMP:  77; 6HR MAX TEMP:  90;


$$

LAZ001-002-241900-
NORTHWEST LOUISIANA

CITY           SKY/WX    TMP DP  RH WIND       PRES   REMARKS
SHREVEPORT     MOSUNNY   94  77  57 W5        29.97F HX 108
6HR MIN TEMP:  78; 6HR MAX TEMP:  95;

BARKSDALE AFB  MOSUNNY   94  73  50 NW7       29.97F HX 103
6HR MIN TEMP:  76; 6HR MAX TEMP:  94;

DTN SHREVEPORT MOSUNNY   94  77  57 CALM      29.97F HX 108
6HR MIN TEMP:  78; 6HR MAX TEMP:  94;


$$

LAZ014-016-241900-
NORTHEAST LOUISIANA

CITY           SKY/WX    TMP DP  RH WIND       PRES   REMARKS
MONROE         PTSUNNY   92  80  68 VRB5      29.98F HX 110
6HR MIN TEMP:  76; 6HR MAX TEMP:  93;

TALLULAH       CLOUDY    82  77  84 VRB5      29.99F
6HR MIN TEMP:  77; 6HR MAX TEMP:  87; 6HR PCP:  0.16;


$$





USA.gov is the U.S. government's official web portal to all federal, state and local government web resources and services.